Alice Springs, Australia

7:03 AM ACST on December 12, 2019 (GMT +0930)
Alice Springs

Weather History for YBAS - August, 2019

Change the Weather History Date:

Monday, August 26, 2019

  Actual Average Record
Temperature  
Mean Temperature 58 °F -  
Max Temperature 71 °F 79 °F 87 °F (1996)
Min Temperature 45 °F 49 °F 33 °F (2002)
Degree Days  
Heating Degree Days 7    
Growing Degree Days 8 (Base 50)    
Moisture  
Dew Point 29 °F    
Average Humidity 31    
Maximum Humidity 62    
Minimum Humidity 12    
Precipitation  
Precipitation 0.00 in 0.01 in - ()
Sea Level Pressure  
Sea Level Pressure 30.20 in    
Wind  
Wind Speed 5 mph ()    
Max Wind Speed 13 mph    
Max Gust Speed -    
Visibility 6.2 miles    
Events      
Averages and records for this station are not official NWS values.
T = Trace of Precipitation, MM = Missing Value Source: Averaged Metar Reports

Daily Weather History Graph

Daily Weather History Graph

Search for Another Location

Airport or City:

Astronomy

Aug. 26, 2019 Rise Set
Actual Time 6:51 AM ACST 6:21 PM ACST
Civil Twilight 6:28 AM ACST 6:44 PM ACST
Nautical Twilight 6:02 AM ACST 7:10 PM ACST
Astronomical Twilight 5:36 AM ACST 7:37 PM ACST
Moon 2:52 AM ACST (8/26) 1:53 PM ACST (8/26)
Length of Visible Light 12h 15m
Length of Day
11h 29m
Waning Crescent, 25% of the Moon is Illuminated
Aug 26
Waning Crescent
Aug 30
New
Sep 6
First Quarter
Sep 14
Full
Sep 22
Last Quarter

Hourly Weather History & Observations

Time (ACST) Temp. Windchill Dew Point Humidity Pressure Visibility Wind Dir Wind Speed Gust Speed Precip Events Conditions
12:00 AM 49 °F - 32 °F 39% 30.18 in - SE 1.2 mph - -   Clear
12:00 AM 50.0 °F - 32.0 °F 50% 30.18 in 6.2 mi SE 1.2 mph - N/A   Unknown
12:30 AM 47 °F - 32 °F 43% 30.18 in - Calm Calm - -  
12:30 AM 48.2 °F - 32.0 °F 54% 30.18 in 6.2 mi Calm Calm - N/A   Unknown
1:30 AM 46.4 °F - 30.2 °F 53% 30.18 in 6.2 mi Calm Calm - N/A   Unknown
2:00 AM 48.2 °F - 33.8 °F 58% 30.18 in 6.2 mi Calm Calm - N/A   Unknown
2:30 AM 47 °F - 34 °F 48% 30.18 in - ENE 1.2 mph - -  
2:30 AM 46.4 °F - 33.8 °F 62% 30.18 in 6.2 mi ENE 1.2 mph - N/A   Unknown
3:00 AM 52 °F - 36 °F 42% 30.17 in - ESE 9.2 mph - -   Clear
3:30 AM 53.6 °F - 32.0 °F 44% 30.18 in 6.2 mi ESE 11.5 mph - N/A   Unknown
4:30 AM 51.8 °F - 30.2 °F 44% 30.18 in 6.2 mi ESE 8.1 mph - N/A   Unknown
5:00 AM 50.0 °F - 30.2 °F 47% 30.18 in 6.2 mi ESE 9.2 mph - N/A   Unknown
5:30 AM 50 °F - 27 °F 28% 30.19 in - ESE 9.2 mph - -  
5:30 AM 50.0 °F - 26.6 °F 40% 30.21 in 6.2 mi ESE 9.2 mph - N/A   Unknown
6:00 AM 49 °F - 26 °F 27% 30.20 in - ESE 8.1 mph - -   Clear
6:30 AM 47 °F - 27 °F 32% 30.21 in - ESE 8.1 mph - -  
6:30 AM 46.4 °F 42.4 °F 26.6 °F 46% 30.21 in 6.2 mi ESE 8.1 mph - N/A   Unknown
7:00 AM 46.4 °F 43.5 °F 26.6 °F 46% 30.24 in 6.2 mi ESE 5.8 mph - N/A   Unknown
7:30 AM 46.4 °F 44.3 °F 24.8 °F 43% 30.24 in 6.2 mi ESE 4.6 mph - N/A   Unknown
8:00 AM 50.0 °F - 26.6 °F 40% 30.24 in 6.2 mi ESE 5.8 mph - N/A   Unknown
8:30 AM 53 °F - 27 °F 24% 30.25 in - East 10.4 mph - -  
8:30 AM 53.6 °F - 26.6 °F 35% 30.27 in - East 10.4 mph - N/A   Clear
9:00 AM 55 °F - 26 °F 21% 30.26 in - ESE 12.7 mph - -   Clear
9:30 AM 56 °F - 26 °F 19% 30.26 in - East 11.5 mph - -  
10:30 AM 59.0 °F - 26.6 °F 29% 30.27 in - East 10.4 mph - N/A   Clear
11:00 AM 60.8 °F - 26.6 °F 27% 30.24 in - East 10.4 mph - N/A   Clear
11:30 AM 64 °F - 27 °F 14% 30.23 in - East 10.4 mph - -  
12:00 PM 64 °F - 28 °F 15% 30.22 in - East 10.4 mph - -   Clear
12:30 PM 64.4 °F - 28.4 °F 26% 30.21 in - East 9.2 mph - N/A   Clear
1:00 PM 66.2 °F - 30.2 °F 26% 30.18 in - ENE 6.9 mph - N/A   Clear
1:30 PM 66.2 °F - 28.4 °F 24% 30.18 in - ESE 5.8 mph - N/A   Clear
2:00 PM 69.8 °F - 30.2 °F 23% 30.18 in - East 6.9 mph - N/A   Clear
2:30 PM 69 °F - 30 °F 13% 30.15 in - East 9.2 mph - -  
2:30 PM 69.8 °F - 30.2 °F 23% 30.15 in - East 9.2 mph - N/A   Clear
3:00 PM 69.8 °F - 30.2 °F 23% 30.15 in - NE 6.9 mph - N/A   Clear
3:30 PM 70 °F - 29 °F 12% 30.14 in - ENE 6.9 mph - -  
3:30 PM 69.8 °F - 30.2 °F 23% 30.15 in - ENE 6.9 mph - N/A   Clear
4:00 PM 71.6 °F - 30.2 °F 22% 30.15 in - East 8.1 mph - N/A   Clear
4:30 PM 69.8 °F - 28.4 °F 21% 30.15 in 6.2 mi ENE 6.9 mph - N/A   Unknown
5:00 PM 69.8 °F - 28.4 °F 21% 30.15 in 6.2 mi ESE 6.9 mph - N/A   Unknown
5:30 PM 71 °F - 30 °F 12% 30.13 in - SE 10.4 mph - -  
5:30 PM 69.8 °F - 30.2 °F 23% 30.15 in 6.2 mi SE 10.4 mph - N/A   Unknown
6:00 PM 69 °F - 29 °F 13% 30.14 in - SE 8.1 mph - -   Clear
6:00 PM 68.0 °F - 28.4 °F 23% 30.15 in 6.2 mi SE 8.1 mph - N/A   Unknown
6:30 PM 66.2 °F - 28.4 °F 24% 30.15 in 6.2 mi SE 8.1 mph - N/A   Unknown
7:00 PM 64.4 °F - 28.4 °F 26% 30.15 in 6.2 mi SE 8.1 mph - N/A   Unknown
8:00 PM 62.6 °F - 28.4 °F 27% 30.18 in 6.2 mi ESE 8.1 mph - N/A   Unknown
8:30 PM 61 °F - 29 °F 18% 30.20 in - SE 8.1 mph - -  
8:30 PM 60.8 °F - 28.4 °F 29% 30.21 in 6.2 mi SE 8.1 mph - N/A   Unknown
9:00 PM 60 °F - 28 °F 18% 30.21 in - ESE 8.1 mph - -   Clear
9:00 PM 59.0 °F - 28.4 °F 31% 30.21 in 6.2 mi ESE 8.1 mph - N/A   Unknown
9:30 PM 59 °F - 28 °F 18% 30.22 in - East 5.8 mph - -  
9:30 PM 59.0 °F - 26.6 °F 29% 30.24 in 6.2 mi East 5.8 mph - N/A   Unknown
10:30 PM 53.6 °F - 26.6 °F 35% 30.24 in 6.2 mi SSE 5.8 mph - N/A   Unknown
11:00 PM 53.6 °F - 26.6 °F 35% 30.24 in 6.2 mi SSE 5.8 mph - N/A   Unknown
11:30 PM 50 °F - 26 °F 26% 30.23 in - SSE 3.5 mph - -  
11:30 PM 50.0 °F - 24.8 °F 37% 30.24 in 6.2 mi SSE 3.5 mph - N/A   Unknown